Lid_Strength_Index
2 3 4 7 11 13 15 12 12 11 10 10 8 8 8 8 9 11 6 3 2 1 1 0 -0 0 0 0 1 1 0 -0 -1 -1 -1 -1 -1 -1 -1 -1 -1 -1 -1 -1 -1 -1 -1 -2 -2
3 3 7 10 15 16 15 13 11 10 9 9 8 8 9 9 6 6 6 2 2 2 1 1 0 1 1 0 0 0 -0 -0 -0 -0 -1 -1 -1 -1 -1 -1 -1 -1 -1 -1 -2 -2 -2 -1 -1
2 4 9 12 15 16 15 12 10 8 8 8 8 7 7 8 7 6 6 2 2 3 3 1 0 1 0 0 1 1 1 1 1 1 1 0 0 -1 -1 -1 -1 -1 -1 -1 -2 -2 -2 -2 -1
6 8 11 13 15 13 13 11 9 8 8 7 8 9 7 6 6 5 4 4 4 4 4 1 1 1 1 2 2 2 2 2 2 2 1 1 0 0 -0 -1 -1 -2 -1 -2 -1 -2 -2 -1 -1
7 10 14 15 15 14 12 11 9 10 10 9 8 9 8 6 5 5 5 5 5 5 4 3 2 2 3 3 3 3 3 3 3 2 2 1 1 1 0 0 -0 -1 -2 -2 -1 -1 -1 -1 -1
10 11 15 16 14 13 12 11 10 10 9 10 9 9 9 6 6 6 5 6 6 6 5 4 3 3 3 3 4 4 4 4 3 3 2 2 2 1 1 1 0 0 -0 -1 -2 -0 -1 -1 -1
10 12 14 15 14 13 11 10 12 11 11 9 8 10 9 8 6 6 6 6 7 6 6 6 6 4 3 3 3 4 4 4 3 3 3 3 3 2 2 2 1 1 0 -1 -1 -2 0 -0 -1
9 10 13 14 14 13 11 11 10 10 11 9 8 11 11 8 7 6 7 8 8 7 7 8 7 7 7 7 3 3 3 4 3 3 3 2 2 2 2 2 2 0 -0 -1 -1 -2 -2 0 -0
9 13 15 13 13 13 11 12 10 9 11 11 9 10 9 7 7 8 9 9 9 8 8 9 9 9 8 8 6 5 4 4 4 4 4 4 5 4 3 2 1 1 0 -0 -1 -1 -1 -1 -0
12 15 13 12 13 13 11 12 12 11 12 11 10 9 8 8 8 8 9 9 9 9 8 9 9 9 9 7 8 8 7 7 7 6 6 5 4 4 3 2 2 1 1 0 -1 -1 -1 -1 -0
11 13 11 11 11 10 11 12 11 13 12 11 11 10 9 9 9 9 9 9 9 8 8 9 9 10 10 9 9 9 8 8 7 7 6 4 4 4 3 3 3 2 1 2 2 2 2 1 -0
12 11 11 10 9 10 11 11 11 11 11 10 10 10 9 9 9 9 9 9 9 9 8 9 9 10 10 9 9 9 8 7 8 7 6 4 4 3 3 3 3 2 1 2 1 1 3 0 0
12 11 10 10 10 10 10 11 12 11 10 10 10 10 10 9 9 9 9 9 9 10 9 9 10 10 9 9 9 8 8 8 7 6 4 5 5 4 3 4 2 1 2 2 2 1 0 0 1
11 10 10 10 10 10 11 12 12 11 11 10 10 10 10 9 9 10 10 9 9 9 10 10 10 10 9 9 8 8 8 7 6 5 4 4 4 5 4 4 2 2 2 2 0 0 0 0 1
10 12 11 11 11 11 11 12 13 10 11 11 11 11 11 10 9 10 9 9 9 9 10 10 10 10 9 8 8 8 7 6 5 5 4 3 3 4 5 4 3 3 2 2 0 0 0 0 1
12 13 15 12 11 11 12 14 11 10 12 11 11 11 11 11 10 10 9 9 9 10 10 10 9 9 8 8 8 7 7 6 5 5 4 4 3 4 5 4 3 2 2 0 1 1 1 1 1
14 16 15 13 11 11 13 14 11 10 11 11 11 11 11 11 11 10 10 10 9 10 11 10 10 9 8 8 8 8 8 7 6 5 5 5 4 5 5 4 4 3 1 2 0 1 1 2 2
16 16 14 14 12 13 14 13 11 10 10 10 10 11 11 11 11 10 10 10 10 11 11 11 9 9 8 9 9 9 8 8 7 7 6 5 5 6 6 5 4 2 2 1 1 2 2 3 4
13 14 15 14 12 13 13 13 11 10 11 11 11 12 12 12 11 11 10 11 11 12 11 10 10 9 9 10 10 10 10 9 7 6 6 5 6 6 6 6 4 3 3 1 1 3 4 4 4
14 15 15 13 13 14 14 14 11 10 11 12 12 12 12 12 12 11 12 12 12 12 10 9 9 9 9 10 10 9 9 8 6 6 7 6 5 5 6 6 5 3 1 2 3 3 4 4 4
14 15 16 14 13 13 15 16 14 12 11 12 12 12 12 12 12 12 13 13 13 12 10 9 10 9 9 9 9 9 8 7 6 6 7 6 5 5 6 6 6 4 2 3 3 4 4 5 5
15 13 13 13 15 18 15 20 18 14 13 11 12 12 13 12 12 12 13 14 14 12 10 10 9 9 9 9 10 10 9 7 6 6 7 6 5 5 5 5 4 3 3 4 5 4 4 5 6
14 13 13 14 16 17 18 21 17 15 13 13 12 12 13 12 13 13 13 13 13 11 11 10 10 10 10 9 10 8 9 7 7 7 7 7 5 4 4 3 2 3 3 4 4 4 4 4 5
12 14 15 16 17 22 20 19 18 17 14 13 14 13 12 12 13 13 13 13 12 12 11 11 10 10 10 10 10 8 9 8 8 7 7 6 5 4 3 2 2 3 3 4 4 4 4 4 5
14 16 22 23 24 21 18 19 17 14 13 13 13 12 12 12 13 13 14 13 13 12 11 11 10 11 10 10 10 10 10 8 7 7 6 4 4 3 3 1 2 3 4 4 4 4 4 4 6
14 15 19 23 22 20 18 20 16 13 13 13 12 13 12 13 13 13 14 13 13 12 11 11 11 11 10 10 10 10 10 9 7 7 6 4 4 3 2 1 2 3 3 4 4 4 5 4 5
14 16 14 17 22 21 19 17 14 14 14 14 13 13 13 13 13 13 14 14 13 13 12 11 11 11 11 11 10 10 10 9 8 7 7 6 5 3 2 2 2 3 3 4 4 4 5 6 6
15 13 17 19 23 23 20 19 16 14 14 14 14 13 13 13 14 14 14 14 14 13 12 12 11 11 11 11 11 10 10 10 9 6 6 6 5 4 4 2 2 2 3 3 3 4 4 5 6
16 17 16 16 18 20 21 19 15 15 15 14 14 13 13 13 14 14 14 14 14 13 13 12 11 11 11 11 11 10 10 10 9 7 5 5 5 4 4 4 3 4 4 3 4 4 5 5 6
15 16 16 19 20 19 19 19 14 15 15 14 14 13 13 13 13 14 14 14 14 14 13 12 12 11 11 11 11 11 9 9 10 8 6 5 6 5 4 4 3 3 3 3 4 5 5 5 6